Weather reports worldwide

Advertisment
Ajaccio, France (7761): temperature & dewpoint: 16.01.2019 04:00:00 - 22.01.2019 04:00:00 (CET)Ajaccio, France (7761): temperature 5cm: 16.01.2019 04:00:00 - 22.01.2019 04:00:00 (CET)Ajaccio, France (7761): temperature -20cm & temperature -100cm: 16.01.2019 04:00:00 - 22.01.2019 04:00:00 (CET)Ajaccio, France (7761): wind speed & gusts: 16.01.2019 04:00:00 - 22.01.2019 04:00:00 (CET)Ajaccio, France (7761): wind direction: 16.01.2019 04:00:00 - 22.01.2019 04:00:00 (CET)Ajaccio, France (7761): reduced air pressure: 16.01.2019 04:00:00 - 22.01.2019 04:00:00 (CET)Ajaccio, France (7761): visibility: 16.01.2019 04:00:00 - 22.01.2019 04:00:00 (CET)Ajaccio, France (7761): precipitation: 16.01.2019 04:00:00 - 22.01.2019 04:00:00 (CET)
Date & Time tt [°C] td [°C] tt 5cm [°C] tt -20cm [°C] tt -100cm [°C] ff [km/h] ff [kn] fx [km/h] fx [kn] dd ppp [hPa] vv [km] rr [mm]
22.01.2019 04:00:00 4,2 3,0 2,3 9,5 12,3 7 4 10 5 NE 1008,8 12 0,0
22.01.2019 03:00:00 4,7 3,4 3,0 9,5 12,2 6 4 14 8 NE 1009,5 21 0,0
22.01.2019 02:00:00 5,3 3,6 3,9 9,5 12,3 8 5 13 7 NE 1009,7 22 0,0
22.01.2019 01:00:00 5,7 4,5 4,4 9,5 12,3 10 5 12 6 NE 1009,9 12 0,0
22.01.2019 00:00:00 6,2 4,4 4,1 9,5 12,3 6 3 11 6 ENE 1010,4 8 0,0
21.01.2019 23:00:00 6,9 4,6 3,9 9,5 12,3 4 2 10 5 NNE 1010,4 13 0,0
21.01.2019 22:00:00 7,4 5,5 6,4 9,5 12,3 7 4 11 6 NE 1010,7 16 0,0
21.01.2019 21:00:00 7,9 5,7 6,5 9,5 12,3 3 2 9 5 NE 1010,7 8 0,0
21.01.2019 20:00:00 8,4 5,9 6,5 9,4 12,3 4 2 11 6 NNE 1010,4 12 0,0
21.01.2019 19:00:00 8,8 5,5 7,3 9,4 12,3 4 2 7 4 ENE 1010,3 22 0,0
21.01.2019 18:00:00 9,4 5,8 7,1 9,4 12,3 4 2 5 3 E 1010,0 33 0,0
21.01.2019 17:00:00 10,4 5,2 9,0 9,3 12,3 2 1 5 3 N 1010,0 56 0,0
21.01.2019 16:00:00 10,5 4,8 10,6 9,3 12,3 2 1 12 6 ESE 1010,1 41 0,0
21.01.2019 15:00:00 10,6 4,7 10,1 9,3 12,3 5 3 9 5 ESE 1010,1 35 0,2
21.01.2019 14:00:00 10,6 4,9 10,4 9,3 12,3 7 4 11 6 ESE 1010,3 15 0,0
21.01.2019 13:00:00 10,6 3,6 10,8 9,3 12,3 3 2 12 6 S 1010,8 34 0,0
21.01.2019 12:00:00 9,6 3,6 9,2 9,3 12,3 0 0 8 4 N 1010,9 39 0,0
21.01.2019 11:00:00 8,5 3,9 7,8 9,3 12,3 5 3 10 6 NNE 1011,4 44 0,0
21.01.2019 10:00:00 7,3 3,5 6,3 9,4 12,3 6 4 10 5 NE 1011,4 19 0,0
21.01.2019 09:00:00 6,2 2,6 5,1 9,4 12,3 8 4 16 8 NE 1011,3 46 0,0
21.01.2019 08:00:00 5,6 2,2 4,0 9,4 12,3 10 6 16 9 NNE 1011,1 57 0,0
21.01.2019 07:00:00 5,0 2,2 3,7 9,5 12,3 10 5 13 7 NE 1011,2 60 0,0
21.01.2019 06:00:00 5,5 2,1 4,4 9,5 12,3 8 4 16 9 NE 1011,0 60 0,0
21.01.2019 05:00:00 5,6 2,4 4,4 9,5 12,3 9 5 16 9 NE 1011,2 60 0,0
21.01.2019 04:00:00 5,1 2,4 4,4 9,5 12,3 11 6 16 9 NE 1011,5 46 0,0
21.01.2019 03:00:00 5,9 2,0 4,4 9,6 12,3 6 4 15 8 ENE 1012,0 47 0,0
21.01.2019 02:00:00 5,0 2,4 3,9 9,6 12,3 10 6 19 10 NE 1011,9 40 0,0
21.01.2019 01:00:00 4,9 2,3 4,0 9,6 12,3 9 5 13 7 NE 1012,1 36 0,0
21.01.2019 00:00:00 5,7 2,5 4,7 9,6 12,3 6 4 16 9 NE 1012,4 39 0,0
20.01.2019 23:00:00 5,9 2,4 4,4 9,6 12,3 8 5 14 7 NE 1012,3 31 0,0
20.01.2019 22:00:00 5,7 2,7 4,6 9,6 12,3 9 5 16 9 NE 1012,3 25 0,0
20.01.2019 21:00:00 6,4 3,0 5,3 9,6 12,3 9 5 13 7 NE 1012,4 21 0,0
20.01.2019 20:00:00 7,0 3,4 5,9 9,6 12,3 9 5 13 7 NE 1012,2 18 0,0
20.01.2019 19:00:00 7,7 3,9 5,9 9,5 12,3 7 4 11 6 NE 1012,2 18 0,0
20.01.2019 18:00:00 8,8 4,2 5,6 9,4 12,3 4 2 5 3 NE 1011,8 16 0,0
20.01.2019 17:00:00 10,2 3,2 7,8 9,4 12,3 2 1 4 2 SSE 1011,4 22 0,0
20.01.2019 16:00:00 11,1 2,4 11,5 9,3 12,3 3 2 12 7 SSE 1011,3 60 0,0
20.01.2019 15:00:00 11,8 3,0 12,5 9,3 12,3 10 6 17 9 SW 1011,3 60 0,0
20.01.2019 14:00:00 11,7 3,2 14,0 9,3 12,3 11 6 15 8 W 1011,4 60 0,0
20.01.2019 13:00:00 12,5 2,3 18,0 9,3 12,3 6 3 11 6 SW 1011,9 56 0,0
20.01.2019 12:00:00 12,3 1,9 14,7 9,3 12,3 3 1 10 5 NW 1012,7 60 0,0
20.01.2019 11:00:00 9,9 3,0 12,9 9,4 12,3 5 3 10 6 NE 1013,3 53 0,0
20.01.2019 10:00:00 6,5 2,4 6,7 9,4 12,3 7 4 18 10 NE 1013,2 44 0,0
20.01.2019 09:00:00 3,7 0,6 1,5 9,5 12,3 12 7 19 10 NE 1013,1 59 0,0
20.01.2019 08:00:00 2,6 0,0 1,2 9,5 12,3 13 7 18 10 NE 1012,7 57 0,0
20.01.2019 07:00:00 2,3 0,0 0,8 9,6 12,3 13 7 19 10 NE 1012,5 46 0,0
20.01.2019 06:00:00 2,5 0,2 1,1 9,7 12,3 10 6 18 10 NE 1012,6 48 0,0
20.01.2019 05:00:00 2,7 0,6 1,2 9,7 12,3 15 8 21 11 NNE 1012,6 48 0,0
20.01.2019 04:00:00 3,8 1,0 2,1 9,7 12,3 11 6 19 10 NNE 1012,8 50 0,0
20.01.2019 03:00:00 3,7 1,2 2,0 9,8 12,3 13 7 18 10 NE 1013,3 41 0,0
20.01.2019 02:00:00 3,8 1,5 2,5 9,8 12,3 13 7 19 10 NNE 1013,2 44 0,0
20.01.2019 01:00:00 4,1 1,8 3,0 9,8 12,3 10 5 13 7 NE 1013,4 26 0,0
20.01.2019 00:00:00 5,0 2,5 3,3 9,8 12,3 8 4 16 9 NNE 1013,7 27 0,0
19.01.2019 23:00:00 5,4 2,9 3,8 9,8 12,3 11 6 16 8 NE 1013,6 24 0,0
19.01.2019 22:00:00 6,5 3,1 4,9 9,8 12,3 7 4 16 9 NE 1013,8 26 0,0
19.01.2019 21:00:00 6,9 3,7 5,7 9,8 12,3 9 5 14 8 NE 1013,7 22 0,0
19.01.2019 20:00:00 7,6 4,0 6,4 9,8 12,3 8 4 17 9 NE 1013,6 28 0,0
19.01.2019 19:00:00 8,5 3,7 7,1 9,7 12,3 6 3 16 8 NE 1013,2 40 0,0
19.01.2019 18:00:00 8,9 3,9 7,1 9,7 12,3 6 3 10 5 ESE 1013,0 27 0,0
19.01.2019 17:00:00 10,7 3,9 9,3 9,6 12,3 4 2 13 7 SE 1012,9 43 0,0
19.01.2019 16:00:00 11,5 4,0 10,9 9,6 12,3 7 4 13 7 SW 1013,1 59 0,0
19.01.2019 15:00:00 12,9 3,5 13,9 9,5 12,3 8 4 12 7 SSW 1013,2 48 0,0
19.01.2019 14:00:00 12,4 2,3 15,1 9,5 12,3 8 4 11 6 SSW 1013,5 60 0,0
19.01.2019 13:00:00 11,3 3,3 14,9 9,5 12,3 3 2 7 4 W 1014,0 53 0,0
19.01.2019 12:00:00 10,6 4,7 11,8 9,6 12,3 4 2 8 5 NNE 1014,5 40 0,0
19.01.2019 11:00:00 9,2 5,2 10,6 9,6 12,3 5 3 10 6 NE 1015,1 52 0,0
19.01.2019 10:00:00 6,6 4,3 4,5 9,6 12,3 8 4 17 9 NNE 1014,8 46 0,0
19.01.2019 09:00:00 4,5 2,4 2,8 9,7 12,3 13 7 18 10 NE 1014,4 55 0,0
19.01.2019 08:00:00 4,1 2,0 2,9 9,7 12,3 14 8 22 12 NNE 1014,1 60 0,0
19.01.2019 07:00:00 4,6 2,6 3,6 9,7 12,3 9 5 18 10 NE 1013,9 60 0,0
19.01.2019 06:00:00 4,7 2,9 3,3 9,8 12,3 13 7 17 9 NNE 1013,7 58 0,0
19.01.2019 05:00:00 4,4 2,7 3,0 9,8 12,3 12 6 18 10 NE 1013,9 44 0,0
19.01.2019 04:00:00 4,8 3,3 3,1 9,8 12,3 9 5 16 9 NE 1014,3 35 0,0
19.01.2019 03:00:00 5,6 4,1 3,6 9,9 12,3 9 5 13 7 NNE 1014,6 41 0,0
19.01.2019 02:00:00 6,1 4,3 4,9 9,9 12,3 6 4 14 7 NNE 1014,5 54 0,0
19.01.2019 01:00:00 6,0 4,2 5,4 9,9 12,3 9 5 14 8 NNE 1014,8 37 0,0
19.01.2019 00:00:00 6,0 4,6 5,3 10,0 12,3 6 3 14 7 NE 1015,1 6 1,2
18.01.2019 23:00:00 6,2 4,5 5,4 10,0 12,3 8 4 22 12 NE 1015,0 6 2,0
18.01.2019 22:00:00 6,4 4,6 5,4 10,0 12,3 13 7 24 13 NNE 1014,6 4,1 1,4
18.01.2019 21:00:00 6,7 4,0 5,5 10,0 12,3 13 7 24 13 E 1014,2 6 1,8
18.01.2019 20:00:00 6,9 4,2 5,2 10,0 12,3 7 4 15 8 ENE 1014,2 7 1,4
18.01.2019 19:00:00 7,5 2,6 5,4 9,9 12,3 7 4 18 10 NE 1014,1 9 0,2
18.01.2019 18:00:00 8,6 1,7 5,8 9,9 12,3 8 4 21 11 ESE 1013,4 30 0,0
18.01.2019 17:00:00 10,5 1,6 8,3 9,8 12,3 11 6 20 11 S 1013,2 47 0,0
18.01.2019 16:00:00 12,7 1,7 10,7 9,8 12,3 10 5 18 10 SW 1013,2 20 0,0
18.01.2019 15:00:00 11,5 1,4 10,8 9,7 12,3 6 4 22 12 S 1013,1 50 0,0
18.01.2019 14:00:00 12,6 2,2 16,9 9,7 12,3 18 10 27 14 WSW 1013,2 48 0,0
18.01.2019 13:00:00 12,9 3,3 19,6 9,7 12,3 16 9 25 13 SW 1013,2 20 0,0
18.01.2019 12:00:00 12,6 3,3 13,7 9,7 12,3 11 6 24 13 SW 1013,5 20 0,0
18.01.2019 11:00:00 9,5 4,3 11,1 9,7 12,3 4 2 8 5 SW 1014,0 19 0,0
18.01.2019 10:00:00 8,2 6,8 5,5 9,8 12,3 6 3 14 8 NE 1013,6 20 0,0
18.01.2019 09:00:00 5,7 4,8 4,6 9,8 12,3 9 5 14 7 NE 1013,4 16 0,0
18.01.2019 08:00:00 5,4 4,5 4,3 9,8 12,3 8 4 13 7 NE 1013,0 18 0,0
18.01.2019 07:00:00 5,1 4,4 3,0 9,8 12,3 11 6 16 8 NE 1012,9 20 0,2
18.01.2019 06:00:00 4,3 3,6 2,8 9,8 12,3 8 4 13 7 NE 1012,8 7 0,0
18.01.2019 05:00:00 4,7 3,8 2,8 9,9 12,3 9 5 13 7 NE 1012,9 0,5 0,0
18.01.2019 04:00:00 7,0 6,1 4,9 9,9 12,3 6 3 10 5 NE 1013,5 1,3 0,0
18.01.2019 03:00:00 7,5 6,4 6,0 9,9 12,3 6 3 12 6 NNE 1013,9 7 0,0
18.01.2019 02:00:00 7,8 6,7 6,8 9,9 12,3 6 4 13 7 NE 1013,9 9 1,2
18.01.2019 01:00:00 7,4 6,2 5,8 9,9 12,3 9 5 12 6 ENE 1014,2 11 0,0
18.01.2019 00:00:00 7,9 6,8 6,2 9,9 12,3 8 5 13 7 NE 1014,7 14 0,0
17.01.2019 23:00:00 7,5 6,1 6,0 9,8 12,3 7 4 11 6 NNE 1014,9 7 0,0
17.01.2019 22:00:00 8,2 6,7 6,6 9,8 12,3 8 4 13 7 NE 1014,9 15 0,2
17.01.2019 21:00:00 8,8 7,4 7,3 9,8 12,3 10 5 14 7 NNE 1014,7 13 0,0
17.01.2019 20:00:00 8,7 7,3 7,6 9,8 12,3 6 3 11 6 NE 1015,0 10 0,0
17.01.2019 19:00:00 9,1 7,5 7,6 9,7 12,3 7 4 16 8 N 1014,9 14 0,0
17.01.2019 18:00:00 9,9 8,5 8,5 9,7 12,3 7 4 15 8 N 1015,0 12 0,2
17.01.2019 17:00:00 10,5 8,6 9,5 9,6 12,3 4 2 7 4 ENE 1014,8 8 1,0
17.01.2019 16:00:00 10,8 8,6 9,6 9,6 12,3 4 2 16 8 E 1015,1 16 0,6
17.01.2019 15:00:00 11,2 7,5 10,2 9,6 12,3 6 3 16 9 NE 1015,2 35 0,0
17.01.2019 14:00:00 11,7 8,7 10,6 9,5 12,3 9 5 16 9 E 1015,3 43 0,0
17.01.2019 13:00:00 11,4 8,3 10,4 9,5 12,3 5 3 9 5 SE 1016,2 14 0,8
17.01.2019 12:00:00 12,2 6,2 11,7 9,5 12,3 8 4 11 6 W 1016,7 15 0,0
17.01.2019 11:00:00 12,1 6,2 10,4 9,5 12,3 2 1 15 8 NE 1017,1 20 0,0
17.01.2019 10:00:00 9,8 5,2 8,1 9,6 12,3 8 5 14 7 NE 1016,9 37 0,0
17.01.2019 09:00:00 7,9 4,5 7,3 9,5 12,3 8 4 16 9 NNE 1016,8 43 0,0
17.01.2019 08:00:00 7,8 4,0 6,0 9,6 12,3 9 5 13 7 NE 1016,9 45 0,0
17.01.2019 07:00:00 7,2 4,0 6,3 9,6 12,3 8 4 13 7 NE 1016,9 49 0,0
17.01.2019 06:00:00 7,6 3,8 6,2 9,6 12,3 6 4 14 8 NNE 1017,1 48 0,0
17.01.2019 05:00:00 7,0 3,6 5,7 9,7 12,3 6 3 14 7 NE 1017,4 42 0,0
17.01.2019 04:00:00 6,5 3,6 5,2 9,7 12,3 5 3 19 10 NE 1018,3 37 0,0
17.01.2019 03:00:00 6,2 3,4 4,8 9,7 12,3 13 7 18 10 NE 1018,8 34 0,0
17.01.2019 02:00:00 5,8 3,3 4,3 9,7 12,3 11 6 18 10 NE 1019,1 26 0,0
17.01.2019 01:00:00 6,1 3,3 4,6 9,7 12,3 10 5 14 7 NE 1019,6 25 0,0
17.01.2019 00:00:00 7,2 4,8 5,0 9,7 12,3 10 6 16 9 NE 1020,1 23 0,0
16.01.2019 23:00:00 8,1 5,0 6,1 9,6 12,3 8 4 11 6 ENE 1020,6 15 0,0
16.01.2019 22:00:00 9,4 5,8 8,3 9,6 12,3 5 3 9 5 ENE 1020,5 19 0,0
16.01.2019 21:00:00 9,4 5,8 8,5 9,5 12,3 7 4 10 5 NE 1020,1 16 0,0
16.01.2019 20:00:00 9,8 6,0 8,3 9,5 12,3 6 3 10 5 NNE 1020,0 16 0,0
16.01.2019 19:00:00 11,0 6,3 8,6 9,4 12,3 7 4 9 5 NE 1020,1 18 0,0
16.01.2019 18:00:00 12,1 5,9 9,9 9,3 12,3 5 3 10 6 NE 1020,1 33 0,0
16.01.2019 17:00:00 13,2 6,3 12,5 9,3 12,3 6 4 16 9 SE 1020,2 19 0,0
16.01.2019 16:00:00 13,8 6,4 13,7 9,2 12,3 13 7 17 9 SSW 1020,4 33 0,0
16.01.2019 15:00:00 14,1 6,4 15,2 9,1 12,3 10 5 21 11 SSW 1020,5 33 0,0
16.01.2019 14:00:00 14,4 6,2 15,5 9,1 12,3 14 8 24 13 SSW 1020,7 37 0,0
16.01.2019 13:00:00 15,9 4,9 18,0 9,1 12,3 11 6 18 10 SSE 1021,2 55 0,0
16.01.2019 12:00:00 13,3 4,7 15,2 9,1 12,3 7 4 11 6 W 1022,1 20 0,0
16.01.2019 11:00:00 13,1 2,9 14,9 9,2 12,3 5 3 13 7 NE 1022,7 43 0,0
16.01.2019 10:00:00 9,0 2,5 7,9 9,2 12,3 10 5 18 10 NE 1022,8 48 0,0
16.01.2019 09:00:00 5,4 0,4 2,4 9,3 12,3 14 7 21 12 NNE 1022,4 50 0,0
16.01.2019 08:00:00 3,5 -0,3 1,5 9,4 12,3 15 8 22 12 NE 1022,2 45 0,0
16.01.2019 07:00:00 2,9 -0,4 1,4 9,4 12,3 13 7 18 10 NE 1022,2 52 0,0
16.01.2019 06:00:00 3,2 -0,4 1,9 9,5 12,3 11 6 19 10 NE 1022,1 57 0,0
16.01.2019 05:00:00 3,2 -0,1 1,3 9,5 12,3 12 7 16 9 NE 1022,0 58 0,0
16.01.2019 04:00:00 3,7 -0,3 2,3 9,6 12,3 11 6 19 11 NE 1022,3 55 0,0

tt = temperature
td = dewpoint
tt 5cm = temperature 5cm
tt -20cm = temperature -20cm
tt -100cm = temperature -100cm
ff = wind speed
fx = gusts
dd = wind direction
ppp = reduced air pressure
vv = visibility
rr = precipitation

Next stations